Year,Month,Day,Hour,Minute,Value (Times are PST for temperature in C)
2016,11,11,00,00,10.10
2016,11,11,00,01,10.10
2016,11,11,00,02,10.10
2016,11,11,00,03,10.10
2016,11,11,00,04,10.10
2016,11,11,00,05,10.20
2016,11,11,00,06,10.20
2016,11,11,00,07,10.20
2016,11,11,00,08,10.10
2016,11,11,00,09,10.10
2016,11,11,00,10,10.10
2016,11,11,00,11,10.10
2016,11,11,00,12,10.10
2016,11,11,00,13,10.10
2016,11,11,00,14,10.10
2016,11,11,00,15,10.10
2016,11,11,00,16,10.10
2016,11,11,00,17,10.10
2016,11,11,00,18,10.10
2016,11,11,00,19,10.10
2016,11,11,00,20,10.10
2016,11,11,00,21,10.10
2016,11,11,00,22,10.10
2016,11,11,00,23,10.10
2016,11,11,00,24,10.10
2016,11,11,00,25,10.10
2016,11,11,00,26,10.10
2016,11,11,00,27,10.10
2016,11,11,00,28,10.10
2016,11,11,00,29,10.10
2016,11,11,00,30,10.10
2016,11,11,00,31,10.10
2016,11,11,00,32,10.10
2016,11,11,00,33,10.10
2016,11,11,00,34,10.10
2016,11,11,00,35,10.10
2016,11,11,00,36,10.10
2016,11,11,00,37,10.10
2016,11,11,00,38,10.10
2016,11,11,00,39,10.10
2016,11,11,00,40,10.20
2016,11,11,00,41,10.20
2016,11,11,00,42,10.20
2016,11,11,00,43,10.20
2016,11,11,00,44,10.20
2016,11,11,00,45,10.20
2016,11,11,00,46,10.20
2016,11,11,00,47,10.20
2016,11,11,00,48,10.20
2016,11,11,00,49,10.20
2016,11,11,00,50,10.20
2016,11,11,00,51,10.20
2016,11,11,00,52,10.20
2016,11,11,00,53,10.20
2016,11,11,00,54,10.20
2016,11,11,00,55,10.20
2016,11,11,00,56,10.20
2016,11,11,00,57,10.20
2016,11,11,00,58,10.20
2016,11,11,00,59,10.20
2016,11,11,01,00,10.20
2016,11,11,01,01,10.20
2016,11,11,01,02,10.20
2016,11,11,01,03,10.20
2016,11,11,01,04,10.20
2016,11,11,01,05,10.20
2016,11,11,01,06,10.20
2016,11,11,01,07,10.20
2016,11,11,01,08,10.20
2016,11,11,01,09,10.20
2016,11,11,01,10,10.20
2016,11,11,01,11,10.20
2016,11,11,01,12,10.20
2016,11,11,01,13,10.20
2016,11,11,01,14,10.20
2016,11,11,01,15,10.20
2016,11,11,01,16,10.20
2016,11,11,01,17,10.20
2016,11,11,01,18,10.20
2016,11,11,01,19,10.20
2016,11,11,01,20,10.20
2016,11,11,01,21,10.20
2016,11,11,01,22,10.20
2016,11,11,01,23,10.20
2016,11,11,01,24,10.20
2016,11,11,01,25,10.20
2016,11,11,01,26,10.20
2016,11,11,01,27,10.30
2016,11,11,01,28,10.20
2016,11,11,01,29,10.30
2016,11,11,01,30,10.30
2016,11,11,01,31,10.20
2016,11,11,01,32,10.20
2016,11,11,01,33,10.30
2016,11,11,01,34,10.20
2016,11,11,01,35,10.20
2016,11,11,01,36,10.30
2016,11,11,01,37,10.30
2016,11,11,01,38,10.20
2016,11,11,01,39,10.20
2016,11,11,01,40,10.20
2016,11,11,01,41,10.20
2016,11,11,01,42,10.20
2016,11,11,01,43,10.20
2016,11,11,01,44,10.20
2016,11,11,01,45,10.20
2016,11,11,01,46,10.20
2016,11,11,01,47,10.20
2016,11,11,01,48,10.20
2016,11,11,01,49,10.20
2016,11,11,01,50,10.20
2016,11,11,01,51,10.20
2016,11,11,01,52,10.20
2016,11,11,01,53,10.20
2016,11,11,01,54,10.20
2016,11,11,01,55,10.20
2016,11,11,01,56,10.20
2016,11,11,01,57,10.20
2016,11,11,01,58,10.20
2016,11,11,01,59,10.20
2016,11,11,02,00,10.20
2016,11,11,02,01,10.20
2016,11,11,02,02,10.20
2016,11,11,02,03,10.20
2016,11,11,02,04,10.20
2016,11,11,02,05,10.20
2016,11,11,02,06,10.20
2016,11,11,02,07,10.20
2016,11,11,02,08,10.20
2016,11,11,02,09,10.20
2016,11,11,02,10,10.20
2016,11,11,02,11,10.20
2016,11,11,02,12,10.20
2016,11,11,02,13,10.20
2016,11,11,02,14,10.20
2016,11,11,02,15,10.20
2016,11,11,02,16,10.20
2016,11,11,02,17,10.20
2016,11,11,02,18,10.20
2016,11,11,02,19,10.20
2016,11,11,02,20,10.20
2016,11,11,02,21,10.20
2016,11,11,02,22,10.20
2016,11,11,02,23,10.20
2016,11,11,02,24,10.20
2016,11,11,02,25,10.20
2016,11,11,02,26,10.20
2016,11,11,02,27,10.10
2016,11,11,02,28,10.10
2016,11,11,02,29,10.10
2016,11,11,02,30,10.10
2016,11,11,02,31,10.10
2016,11,11,02,32,10.10
2016,11,11,02,33,10.10
2016,11,11,02,34,10.10
2016,11,11,02,35,10.10
2016,11,11,02,36,10.10
2016,11,11,02,37,10.10
2016,11,11,02,38,10.10
2016,11,11,02,39,10.10
2016,11,11,02,40,10.10
2016,11,11,02,41,10.10
2016,11,11,02,42,10.10
2016,11,11,02,43,10.10
2016,11,11,02,44,10.10
2016,11,11,02,45,10.10
2016,11,11,02,46,10.10
2016,11,11,02,47,10.10
2016,11,11,02,48,10.10
2016,11,11,02,49,10.10
2016,11,11,02,50,10.10
2016,11,11,02,51,10.10
2016,11,11,02,52,10.10
2016,11,11,02,53,10.10
2016,11,11,02,54,10.10
2016,11,11,02,55,10.10
2016,11,11,02,56,10.10
2016,11,11,02,57,10.10
2016,11,11,02,58,10.10
2016,11,11,02,59,10.10
2016,11,11,03,00,10.10
2016,11,11,03,01,10.10
2016,11,11,03,02,10.10
2016,11,11,03,03,10.10
2016,11,11,03,04,10.10
2016,11,11,03,05,10.10
2016,11,11,03,06,10.10
2016,11,11,03,07,10.10
2016,11,11,03,08,10.10
2016,11,11,03,09,10.20
2016,11,11,03,10,10.20
2016,11,11,03,11,10.20
2016,11,11,03,12,10.20
2016,11,11,03,13,10.20
2016,11,11,03,14,10.20
2016,11,11,03,15,10.20
2016,11,11,03,16,10.20
2016,11,11,03,17,10.20
2016,11,11,03,18,10.20
2016,11,11,03,19,10.20
2016,11,11,03,20,10.20
2016,11,11,03,21,10.20
2016,11,11,03,22,10.20
2016,11,11,03,23,10.20
2016,11,11,03,24,10.20
2016,11,11,03,25,10.20
2016,11,11,03,26,10.20
2016,11,11,03,27,10.20
2016,11,11,03,28,10.20
2016,11,11,03,29,10.20
2016,11,11,03,30,10.20
2016,11,11,03,31,10.20
2016,11,11,03,32,10.20
2016,11,11,03,33,10.20
2016,11,11,03,34,10.20
2016,11,11,03,35,10.20
2016,11,11,03,36,10.20
2016,11,11,03,37,10.20
2016,11,11,03,38,10.20
2016,11,11,03,39,10.20
2016,11,11,03,40,10.20
2016,11,11,03,41,10.20
2016,11,11,03,42,10.20
2016,11,11,03,43,10.20
2016,11,11,03,44,10.20
2016,11,11,03,45,10.20
2016,11,11,03,46,10.20
2016,11,11,03,47,10.20
2016,11,11,03,48,10.20
2016,11,11,03,49,10.20
2016,11,11,03,50,10.20
2016,11,11,03,51,10.20
2016,11,11,03,52,10.20
2016,11,11,03,53,10.10
2016,11,11,03,54,10.10
2016,11,11,03,55,10.10
2016,11,11,03,56,10.10
2016,11,11,03,57,10.10
2016,11,11,03,58,10.10
2016,11,11,03,59,10.10
2016,11,11,04,00,10.10
2016,11,11,04,01,10.10
2016,11,11,04,02,10.10
2016,11,11,04,03,10.10
2016,11,11,04,04,10.10
2016,11,11,04,05,10.10
2016,11,11,04,06,10.10
2016,11,11,04,07,10.10
2016,11,11,04,08,10.00
2016,11,11,04,09,10.00
2016,11,11,04,10,10.00
2016,11,11,04,11,10.00
2016,11,11,04,12,10.00
2016,11,11,04,13,10.00
2016,11,11,04,14,10.00
2016,11,11,04,15,10.00
2016,11,11,04,16,10.00
2016,11,11,04,17,10.00
2016,11,11,04,18,10.00
2016,11,11,04,19,10.00
2016,11,11,04,20,10.00
2016,11,11,04,21,10.00
2016,11,11,04,22,10.00
2016,11,11,04,23,10.00
2016,11,11,04,24,10.00
2016,11,11,04,25,10.00
2016,11,11,04,26,10.00
2016,11,11,04,27,10.00
2016,11,11,04,28,10.00
2016,11,11,04,29,10.00
2016,11,11,04,30,10.00
2016,11,11,04,31,10.00
2016,11,11,04,32,10.00
2016,11,11,04,33,10.00
2016,11,11,04,34,10.00
2016,11,11,04,35,10.00
2016,11,11,04,36,10.00
2016,11,11,04,37,10.00
2016,11,11,04,38,10.00
2016,11,11,04,39,10.00
2016,11,11,04,40,10.00
2016,11,11,04,41,10.00
2016,11,11,04,42,10.00
2016,11,11,04,43,10.00
2016,11,11,04,44,10.00
2016,11,11,04,45,10.00
2016,11,11,04,46,10.00
2016,11,11,04,47,10.00
2016,11,11,04,48,10.00
2016,11,11,04,49,10.00
2016,11,11,04,50,10.00
2016,11,11,04,51,10.00
2016,11,11,04,52,10.00
2016,11,11,04,53,10.00
2016,11,11,04,54,10.00
2016,11,11,04,55,10.00
2016,11,11,04,56,10.00
2016,11,11,04,57,10.00
2016,11,11,04,58,10.00
2016,11,11,04,59,10.00
2016,11,11,05,00,10.00
2016,11,11,05,01,10.00
2016,11,11,05,02,10.00
2016,11,11,05,03,10.00
2016,11,11,05,04,10.00
2016,11,11,05,05,10.00
2016,11,11,05,06,10.00
2016,11,11,05,07,10.00
2016,11,11,05,08,10.00
2016,11,11,05,09,10.00
2016,11,11,05,10,10.00
2016,11,11,05,11,10.00
2016,11,11,05,12,10.00
2016,11,11,05,13,9.90
2016,11,11,05,14,9.90
2016,11,11,05,15,9.90
2016,11,11,05,16,9.90
2016,11,11,05,17,9.90
2016,11,11,05,18,9.90
2016,11,11,05,19,9.90
2016,11,11,05,20,9.90
2016,11,11,05,21,9.90
2016,11,11,05,22,9.90
2016,11,11,05,23,9.90
2016,11,11,05,24,9.90
2016,11,11,05,25,9.90
2016,11,11,05,26,9.90
2016,11,11,05,27,9.90
2016,11,11,05,28,9.90
2016,11,11,05,29,9.90
2016,11,11,05,30,9.90
2016,11,11,05,31,9.90
2016,11,11,05,32,9.90
2016,11,11,05,33,9.90
2016,11,11,05,34,9.90
2016,11,11,05,35,9.90
2016,11,11,05,36,9.90
2016,11,11,05,37,9.90
2016,11,11,05,38,9.90
2016,11,11,05,39,9.90
2016,11,11,05,40,9.90
2016,11,11,05,41,9.90
2016,11,11,05,42,9.90
2016,11,11,05,43,9.90
2016,11,11,05,44,9.90
2016,11,11,05,45,9.90
2016,11,11,05,46,9.80
2016,11,11,05,47,9.80
2016,11,11,05,48,9.80
2016,11,11,05,49,9.80
2016,11,11,05,50,9.80
2016,11,11,05,51,9.80
2016,11,11,05,52,9.80
2016,11,11,05,53,9.80
2016,11,11,05,54,9.80
2016,11,11,05,55,9.80
2016,11,11,05,56,9.80
2016,11,11,05,57,9.80
2016,11,11,05,58,9.80
2016,11,11,05,59,9.80
2016,11,11,06,00,9.80
2016,11,11,06,01,9.80
2016,11,11,06,02,9.80
2016,11,11,06,03,9.80
2016,11,11,06,04,9.80
2016,11,11,06,05,9.80
2016,11,11,06,06,9.80
2016,11,11,06,07,9.80
2016,11,11,06,08,9.80
2016,11,11,06,09,9.80
2016,11,11,06,10,9.80
2016,11,11,06,11,9.80
2016,11,11,06,12,9.80
2016,11,11,06,13,9.80
2016,11,11,06,14,9.80
2016,11,11,06,15,9.80
2016,11,11,06,16,9.80
2016,11,11,06,17,9.80
2016,11,11,06,18,9.80
2016,11,11,06,19,9.80
2016,11,11,06,20,9.80
2016,11,11,06,21,9.80
2016,11,11,06,22,9.80
2016,11,11,06,23,9.80
2016,11,11,06,24,9.80
2016,11,11,06,25,9.80
2016,11,11,06,26,9.80
2016,11,11,06,27,9.80
2016,11,11,06,28,9.80
2016,11,11,06,29,9.80
2016,11,11,06,30,9.80
2016,11,11,06,31,9.80
2016,11,11,06,32,9.80
2016,11,11,06,33,9.80
2016,11,11,06,34,9.80
2016,11,11,06,35,9.80
2016,11,11,06,36,9.80
2016,11,11,06,37,9.80
2016,11,11,06,38,9.80
2016,11,11,06,39,9.80
2016,11,11,06,40,9.80
2016,11,11,06,41,9.80
2016,11,11,06,42,9.80
2016,11,11,06,43,9.80
2016,11,11,06,44,9.80
2016,11,11,06,45,9.80
2016,11,11,06,46,9.80
2016,11,11,06,47,9.80
2016,11,11,06,48,9.80
2016,11,11,06,49,9.80
2016,11,11,06,50,9.80
2016,11,11,06,51,9.80
2016,11,11,06,52,9.80
2016,11,11,06,53,9.80
2016,11,11,06,54,9.80
2016,11,11,06,55,9.80
2016,11,11,06,56,9.80
2016,11,11,06,57,9.80
2016,11,11,06,58,9.80
2016,11,11,06,59,9.80
2016,11,11,07,00,9.80
2016,11,11,07,01,9.80
2016,11,11,07,02,9.80
2016,11,11,07,03,9.80
2016,11,11,07,04,9.80
2016,11,11,07,05,9.80
2016,11,11,07,06,9.80
2016,11,11,07,07,9.80
2016,11,11,07,08,9.80
2016,11,11,07,09,9.80
2016,11,11,07,10,9.80
2016,11,11,07,11,9.80
2016,11,11,07,12,9.80
2016,11,11,07,13,9.80
2016,11,11,07,14,9.80
2016,11,11,07,15,9.80
2016,11,11,07,16,9.80
2016,11,11,07,17,9.80
2016,11,11,07,18,9.80
2016,11,11,07,19,9.80
2016,11,11,07,20,9.80
2016,11,11,07,21,9.80
2016,11,11,07,22,9.80
2016,11,11,07,23,9.80
2016,11,11,07,24,9.80
2016,11,11,07,25,9.80
2016,11,11,07,26,9.80
2016,11,11,07,27,9.80
2016,11,11,07,28,9.80
2016,11,11,07,29,9.90
2016,11,11,07,30,9.90
2016,11,11,07,31,9.90
2016,11,11,07,32,9.90
2016,11,11,07,33,9.90
2016,11,11,07,34,9.90
2016,11,11,07,35,9.90
2016,11,11,07,36,9.80
2016,11,11,07,37,9.80
2016,11,11,07,38,9.80
2016,11,11,07,39,9.80
2016,11,11,07,40,9.80
2016,11,11,07,41,9.80
2016,11,11,07,42,9.80
2016,11,11,07,43,9.80
2016,11,11,07,44,9.80
2016,11,11,07,45,9.80
2016,11,11,07,46,9.80
2016,11,11,07,47,9.80
2016,11,11,07,48,9.80
2016,11,11,07,49,9.80
2016,11,11,07,50,9.80
2016,11,11,07,51,9.80
2016,11,11,07,52,9.80
2016,11,11,07,53,9.80
2016,11,11,07,54,9.80
2016,11,11,07,55,9.80
2016,11,11,07,56,9.80
2016,11,11,07,57,9.80
2016,11,11,07,58,9.80
2016,11,11,07,59,9.80
2016,11,11,08,00,9.80
2016,11,11,08,01,9.80
2016,11,11,08,02,9.80
2016,11,11,08,03,9.80
2016,11,11,08,04,9.80
2016,11,11,08,05,9.80
2016,11,11,08,06,9.80
2016,11,11,08,07,9.90
2016,11,11,08,08,9.90
2016,11,11,08,09,9.90
2016,11,11,08,10,9.90
2016,11,11,08,11,9.90
2016,11,11,08,12,9.90
2016,11,11,08,13,9.90
2016,11,11,08,14,9.90
2016,11,11,08,15,9.80
2016,11,11,08,16,9.90
2016,11,11,08,17,9.90
2016,11,11,08,18,9.90
2016,11,11,08,19,9.90
2016,11,11,08,20,9.90
2016,11,11,08,21,9.90
2016,11,11,08,22,9.90
2016,11,11,08,23,9.90
2016,11,11,08,24,9.90
2016,11,11,08,25,9.90
2016,11,11,08,26,9.90
2016,11,11,08,27,9.90
2016,11,11,08,28,9.90
2016,11,11,08,29,9.90
2016,11,11,08,30,9.90
2016,11,11,08,31,9.90
2016,11,11,08,32,9.90
2016,11,11,08,33,9.90
2016,11,11,08,34,9.90
2016,11,11,08,35,9.90
2016,11,11,08,36,9.90
2016,11,11,08,37,9.90
2016,11,11,08,38,9.90
2016,11,11,08,39,9.90
2016,11,11,08,40,10.00
2016,11,11,08,41,10.00
2016,11,11,08,42,10.00
2016,11,11,08,43,10.00
2016,11,11,08,44,10.00
2016,11,11,08,45,10.00
2016,11,11,08,46,10.00
2016,11,11,08,47,10.00
2016,11,11,08,48,10.00
2016,11,11,08,49,10.00
2016,11,11,08,50,10.00
2016,11,11,08,51,10.00
2016,11,11,08,52,10.00
2016,11,11,08,53,10.00
2016,11,11,08,54,10.00
2016,11,11,08,55,10.00
2016,11,11,08,56,10.00
2016,11,11,08,57,10.00
2016,11,11,08,58,10.00
2016,11,11,08,59,10.00
2016,11,11,09,00,10.00
2016,11,11,09,01,10.00
2016,11,11,09,02,10.00
2016,11,11,09,03,10.00
2016,11,11,09,04,10.00
2016,11,11,09,05,10.00
2016,11,11,09,06,10.00
2016,11,11,09,07,10.10
2016,11,11,09,08,10.10
2016,11,11,09,09,10.10
2016,11,11,09,10,10.10
2016,11,11,09,11,10.10
2016,11,11,09,12,10.10
2016,11,11,09,13,10.10
2016,11,11,09,14,10.10
2016,11,11,09,15,10.10
2016,11,11,09,16,10.10
2016,11,11,09,17,10.10
2016,11,11,09,18,10.10
2016,11,11,09,19,10.10
2016,11,11,09,20,10.10
2016,11,11,09,21,10.10
2016,11,11,09,22,10.10
2016,11,11,09,23,10.10
2016,11,11,09,24,10.10
2016,11,11,09,25,10.10
2016,11,11,09,26,10.10
2016,11,11,09,27,10.10
2016,11,11,09,28,10.10
2016,11,11,09,29,10.10
2016,11,11,09,30,10.10
2016,11,11,09,31,10.10
2016,11,11,09,32,10.10
2016,11,11,09,33,10.10
2016,11,11,09,34,10.10
2016,11,11,09,35,10.10
2016,11,11,09,36,10.10
2016,11,11,09,37,10.10
2016,11,11,09,38,10.10
2016,11,11,09,39,10.10
2016,11,11,09,40,10.20
2016,11,11,09,41,10.10
2016,11,11,09,42,10.20
2016,11,11,09,43,10.20
2016,11,11,09,44,10.20
2016,11,11,09,45,10.20
2016,11,11,09,46,10.20
2016,11,11,09,47,10.20
2016,11,11,09,48,10.20
2016,11,11,09,49,10.20
2016,11,11,09,50,10.20
2016,11,11,09,51,10.20
2016,11,11,09,52,10.20
2016,11,11,09,53,10.20
2016,11,11,09,54,10.20
2016,11,11,09,55,10.20
2016,11,11,09,56,10.20
2016,11,11,09,57,10.20
2016,11,11,09,58,10.20
2016,11,11,09,59,10.30
2016,11,11,10,00,10.30
2016,11,11,10,01,10.30
2016,11,11,10,02,10.30
2016,11,11,10,03,10.30
2016,11,11,10,04,10.30
2016,11,11,10,05,10.30
2016,11,11,10,06,10.30
2016,11,11,10,07,10.30
2016,11,11,10,08,10.30
2016,11,11,10,09,10.30
2016,11,11,10,10,10.30
2016,11,11,10,11,10.30
2016,11,11,10,12,10.30
2016,11,11,10,13,10.30
2016,11,11,10,14,10.30
2016,11,11,10,15,10.30
2016,11,11,10,16,10.30
2016,11,11,10,17,10.30
2016,11,11,10,18,10.40
2016,11,11,10,19,10.40
2016,11,11,10,20,10.40
2016,11,11,10,21,10.40
2016,11,11,10,22,10.40
2016,11,11,10,23,10.40
2016,11,11,10,24,10.40
2016,11,11,10,25,10.40
2016,11,11,10,26,10.40
2016,11,11,10,27,10.40
2016,11,11,10,28,10.40
2016,11,11,10,29,10.40
2016,11,11,10,30,10.40
2016,11,11,10,31,10.40
2016,11,11,10,32,10.40
2016,11,11,10,33,10.40
2016,11,11,10,34,10.50
2016,11,11,10,35,10.50
2016,11,11,10,36,10.50
2016,11,11,10,37,10.50
2016,11,11,10,38,10.60
2016,11,11,10,39,10.60
2016,11,11,10,40,10.60
2016,11,11,10,41,10.60
2016,11,11,10,42,10.60
2016,11,11,10,43,10.60
2016,11,11,10,44,10.60
2016,11,11,10,45,10.60
2016,11,11,10,46,10.60
2016,11,11,10,47,10.60
2016,11,11,10,48,10.60
2016,11,11,10,49,10.60
2016,11,11,10,50,10.60
2016,11,11,10,51,10.60
2016,11,11,10,52,10.60
2016,11,11,10,53,10.60
2016,11,11,10,54,10.60
2016,11,11,10,55,10.60
2016,11,11,10,56,10.60
2016,11,11,10,57,10.60
2016,11,11,10,58,10.70
2016,11,11,10,59,10.70
2016,11,11,11,00,10.70
2016,11,11,11,01,10.70
2016,11,11,11,02,10.70
2016,11,11,11,03,10.70
2016,11,11,11,04,10.70
2016,11,11,11,05,10.70
2016,11,11,11,06,10.70
2016,11,11,11,07,10.70
2016,11,11,11,08,10.70
2016,11,11,11,09,10.70
2016,11,11,11,10,10.70
2016,11,11,11,11,10.70
2016,11,11,11,12,10.70
2016,11,11,11,13,10.70
2016,11,11,11,14,10.70
2016,11,11,11,15,10.70
2016,11,11,11,16,10.70
2016,11,11,11,17,10.70
2016,11,11,11,18,10.70
2016,11,11,11,19,10.70
2016,11,11,11,20,10.70
2016,11,11,11,21,10.70
2016,11,11,11,22,10.70
2016,11,11,11,23,10.70
2016,11,11,11,24,10.70
2016,11,11,11,25,10.70
2016,11,11,11,26,10.70
2016,11,11,11,27,10.70
2016,11,11,11,28,10.70
2016,11,11,11,29,10.70
2016,11,11,11,30,10.70
2016,11,11,11,31,10.70
2016,11,11,11,32,10.70
2016,11,11,11,33,10.70
2016,11,11,11,34,10.70
2016,11,11,11,35,10.70
2016,11,11,11,36,10.80
2016,11,11,11,37,10.80
2016,11,11,11,38,10.80
2016,11,11,11,39,10.80
2016,11,11,11,40,10.80
2016,11,11,11,41,10.80
2016,11,11,11,42,10.80
2016,11,11,11,43,10.80
2016,11,11,11,44,10.80
2016,11,11,11,45,10.80
2016,11,11,11,46,10.80
2016,11,11,11,47,10.80
2016,11,11,11,48,10.80
2016,11,11,11,49,10.80
2016,11,11,11,50,10.80
2016,11,11,11,51,10.80
2016,11,11,11,52,10.80
2016,11,11,11,53,10.80
2016,11,11,11,54,10.70
2016,11,11,11,55,10.70
2016,11,11,11,56,10.80
2016,11,11,11,57,10.80
2016,11,11,11,58,10.80
2016,11,11,11,59,10.80
2016,11,11,12,00,10.80
2016,11,11,12,01,10.80
2016,11,11,12,02,10.80
2016,11,11,12,03,10.80
2016,11,11,12,04,10.80
2016,11,11,12,05,10.80
2016,11,11,12,06,10.80
2016,11,11,12,07,10.80
2016,11,11,12,08,10.80
2016,11,11,12,09,10.80
2016,11,11,12,10,10.80
2016,11,11,12,11,10.80
2016,11,11,12,12,10.80
2016,11,11,12,13,10.80
2016,11,11,12,14,10.80
2016,11,11,12,15,10.80
2016,11,11,12,16,10.80
2016,11,11,12,17,10.80
2016,11,11,12,18,10.80
2016,11,11,12,19,10.80
2016,11,11,12,20,10.80
2016,11,11,12,21,10.80
2016,11,11,12,22,10.80
2016,11,11,12,23,10.80
2016,11,11,12,24,10.80
2016,11,11,12,25,10.80
2016,11,11,12,26,10.80
2016,11,11,12,27,10.80
2016,11,11,12,28,10.80
2016,11,11,12,29,10.80
2016,11,11,12,30,10.80
2016,11,11,12,31,10.80
2016,11,11,12,32,10.80
2016,11,11,12,33,10.80
2016,11,11,12,34,10.80
2016,11,11,12,35,10.80
2016,11,11,12,36,10.80
2016,11,11,12,37,10.80
2016,11,11,12,38,10.80
2016,11,11,12,39,10.80
2016,11,11,12,40,10.80
2016,11,11,12,41,10.80
2016,11,11,12,42,10.80
2016,11,11,12,43,10.80
2016,11,11,12,44,10.80
2016,11,11,12,45,10.80
2016,11,11,12,46,10.80
2016,11,11,12,47,10.80
2016,11,11,12,48,10.80
2016,11,11,12,49,10.80
2016,11,11,12,50,10.80
2016,11,11,12,51,10.80
2016,11,11,12,52,10.80
2016,11,11,12,53,10.80
2016,11,11,12,54,10.80
2016,11,11,12,55,10.80
2016,11,11,12,56,10.80
2016,11,11,12,57,10.80
2016,11,11,12,58,10.90
2016,11,11,12,59,10.90
2016,11,11,13,00,10.90
2016,11,11,13,01,10.90
2016,11,11,13,02,10.90
2016,11,11,13,03,10.90
2016,11,11,13,04,10.90
2016,11,11,13,05,10.90
2016,11,11,13,06,10.90
2016,11,11,13,07,10.90
2016,11,11,13,08,10.90
2016,11,11,13,09,10.80
2016,11,11,13,10,10.80
2016,11,11,13,11,10.80
2016,11,11,13,12,10.80
2016,11,11,13,13,10.80
2016,11,11,13,14,10.80
2016,11,11,13,15,10.80
2016,11,11,13,16,10.80
2016,11,11,13,17,10.80
2016,11,11,13,18,10.80
2016,11,11,13,19,10.80
2016,11,11,13,20,10.80
2016,11,11,13,21,10.80
2016,11,11,13,22,10.80
2016,11,11,13,23,10.80
2016,11,11,13,24,10.80
2016,11,11,13,25,10.80
2016,11,11,13,26,10.80
2016,11,11,13,27,10.70
2016,11,11,13,28,10.70
2016,11,11,13,29,10.70
2016,11,11,13,30,10.70
2016,11,11,13,31,10.70
2016,11,11,13,32,10.70
2016,11,11,13,33,10.70
2016,11,11,13,34,10.70
2016,11,11,13,35,10.70
2016,11,11,13,36,10.70
2016,11,11,13,37,10.70
2016,11,11,13,38,10.70
2016,11,11,13,39,10.70
2016,11,11,13,40,10.80
2016,11,11,13,41,10.80
2016,11,11,13,42,10.80
2016,11,11,13,43,10.80
2016,11,11,13,44,10.80
2016,11,11,13,45,10.80
2016,11,11,13,46,10.80
2016,11,11,13,47,10.80
2016,11,11,13,48,10.80
2016,11,11,13,49,10.80
2016,11,11,13,50,10.80
2016,11,11,13,51,10.80
2016,11,11,13,52,10.80
2016,11,11,13,53,10.80
2016,11,11,13,54,10.80
2016,11,11,13,55,10.80
2016,11,11,13,56,10.90
2016,11,11,13,57,10.90
2016,11,11,13,58,10.90
2016,11,11,13,59,10.90
2016,11,11,14,00,10.90
2016,11,11,14,01,10.90
2016,11,11,14,02,10.90
2016,11,11,14,03,10.90
2016,11,11,14,04,10.90
2016,11,11,14,05,10.90
2016,11,11,14,06,10.90
2016,11,11,14,07,10.90
2016,11,11,14,08,10.90
2016,11,11,14,09,10.90
2016,11,11,14,10,10.90
2016,11,11,14,11,10.90
2016,11,11,14,12,10.90
2016,11,11,14,13,10.90
2016,11,11,14,14,10.90
2016,11,11,14,15,10.90
2016,11,11,14,16,10.90
2016,11,11,14,17,10.90
2016,11,11,14,18,10.90
2016,11,11,14,19,10.90
2016,11,11,14,20,10.90
2016,11,11,14,21,10.90
2016,11,11,14,22,10.90
2016,11,11,14,23,10.90
2016,11,11,14,24,10.90
2016,11,11,14,25,10.90
2016,11,11,14,26,10.90
2016,11,11,14,27,10.90
2016,11,11,14,28,10.90
2016,11,11,14,29,10.90
2016,11,11,14,30,10.90
2016,11,11,14,31,10.90
2016,11,11,14,32,10.90
2016,11,11,14,33,10.90
2016,11,11,14,34,10.90
2016,11,11,14,35,10.90
2016,11,11,14,36,10.90
2016,11,11,14,37,10.90
2016,11,11,14,38,10.90
2016,11,11,14,39,10.90
2016,11,11,14,40,10.90
2016,11,11,14,41,10.90
2016,11,11,14,42,10.90
2016,11,11,14,43,10.90
2016,11,11,14,44,10.90
2016,11,11,14,45,10.90
2016,11,11,14,46,10.90
2016,11,11,14,47,10.90
2016,11,11,14,48,10.90
2016,11,11,14,49,10.90
2016,11,11,14,50,10.90
2016,11,11,14,51,10.90
2016,11,11,14,52,10.90
2016,11,11,14,53,10.90
2016,11,11,14,54,10.90
2016,11,11,14,55,10.90
2016,11,11,14,56,10.90
2016,11,11,14,57,10.90
2016,11,11,14,58,10.90
2016,11,11,14,59,10.80
2016,11,11,15,00,10.80
2016,11,11,15,01,10.80
2016,11,11,15,02,10.80
2016,11,11,15,03,10.80
2016,11,11,15,04,10.80
2016,11,11,15,05,10.80
2016,11,11,15,06,10.80
2016,11,11,15,07,10.80
2016,11,11,15,08,10.80
2016,11,11,15,09,10.80
2016,11,11,15,10,10.80
2016,11,11,15,11,10.80
2016,11,11,15,12,10.80
2016,11,11,15,13,10.80
2016,11,11,15,14,10.80
2016,11,11,15,15,10.80
2016,11,11,15,16,10.80
2016,11,11,15,17,10.80
2016,11,11,15,18,10.80
2016,11,11,15,19,10.80
2016,11,11,15,20,10.80
2016,11,11,15,21,10.80
2016,11,11,15,22,10.80
2016,11,11,15,23,10.80
2016,11,11,15,24,10.80
2016,11,11,15,25,10.80
2016,11,11,15,26,10.80
2016,11,11,15,27,10.80
2016,11,11,15,28,10.80
2016,11,11,15,29,10.80
2016,11,11,15,30,10.80
2016,11,11,15,31,10.80
2016,11,11,15,32,10.80
2016,11,11,15,33,10.80
2016,11,11,15,34,10.80
2016,11,11,15,35,10.80
2016,11,11,15,36,10.80
2016,11,11,15,37,10.80
2016,11,11,15,38,10.80
2016,11,11,15,39,10.80
2016,11,11,15,40,10.80
2016,11,11,15,41,10.80
2016,11,11,15,42,10.80
2016,11,11,15,43,10.80
2016,11,11,15,44,10.80
2016,11,11,15,45,10.80
2016,11,11,15,46,10.70
2016,11,11,15,47,10.80
2016,11,11,15,48,10.80
2016,11,11,15,49,10.80
2016,11,11,15,50,10.80
2016,11,11,15,51,10.80
2016,11,11,15,52,10.70
2016,11,11,15,53,10.70
2016,11,11,15,54,10.70
2016,11,11,15,55,10.70
2016,11,11,15,56,10.70
2016,11,11,15,57,10.70
2016,11,11,15,58,10.70
2016,11,11,15,59,10.70
2016,11,11,16,00,10.70
2016,11,11,16,01,10.70
2016,11,11,16,02,10.70
2016,11,11,16,03,10.70
2016,11,11,16,04,10.70
2016,11,11,16,05,10.70
2016,11,11,16,06,10.70
2016,11,11,16,07,10.70
2016,11,11,16,08,10.70
2016,11,11,16,09,10.70
2016,11,11,16,10,10.70
2016,11,11,16,11,10.70
2016,11,11,16,12,10.70
2016,11,11,16,13,10.80
2016,11,11,16,14,10.70
2016,11,11,16,15,10.70
2016,11,11,16,16,10.70
2016,11,11,16,17,10.70
2016,11,11,16,18,10.70
2016,11,11,16,19,10.70
2016,11,11,16,20,10.70
2016,11,11,16,21,10.70
2016,11,11,16,22,10.70
2016,11,11,16,23,10.70
2016,11,11,16,24,10.70
2016,11,11,16,25,10.70
2016,11,11,16,26,10.70
2016,11,11,16,27,10.70
2016,11,11,16,28,10.70
2016,11,11,16,29,10.70
2016,11,11,16,30,10.70
2016,11,11,16,31,10.70
2016,11,11,16,32,10.70
2016,11,11,16,33,10.70
2016,11,11,16,34,10.70
2016,11,11,16,35,10.70
2016,11,11,16,36,10.70
2016,11,11,16,37,10.60
2016,11,11,16,38,10.60
2016,11,11,16,39,10.60
2016,11,11,16,40,10.70
2016,11,11,16,41,10.70
2016,11,11,16,42,10.70
2016,11,11,16,43,10.60
2016,11,11,16,44,10.60
2016,11,11,16,45,10.60
2016,11,11,16,46,10.60
2016,11,11,16,47,10.60
2016,11,11,16,48,10.60
2016,11,11,16,49,10.60
2016,11,11,16,50,10.60
2016,11,11,16,51,10.60
2016,11,11,16,52,10.60
2016,11,11,16,53,10.60
2016,11,11,16,54,10.60
2016,11,11,16,55,10.60
2016,11,11,16,56,10.60
2016,11,11,16,57,10.60
2016,11,11,16,58,10.60
2016,11,11,16,59,10.60
2016,11,11,17,00,10.60
2016,11,11,17,01,10.60
2016,11,11,17,02,10.60
2016,11,11,17,03,10.60
2016,11,11,17,04,10.60
2016,11,11,17,05,10.60
2016,11,11,17,06,10.60
2016,11,11,17,07,10.60
2016,11,11,17,08,10.60
2016,11,11,17,09,10.60
2016,11,11,17,10,10.60
2016,11,11,17,11,10.60
2016,11,11,17,12,10.60
2016,11,11,17,13,10.60
2016,11,11,17,14,10.60
2016,11,11,17,15,10.70
2016,11,11,17,16,10.70
2016,11,11,17,17,10.70
2016,11,11,17,18,10.70
2016,11,11,17,19,10.70
2016,11,11,17,20,10.70
2016,11,11,17,21,10.70
2016,11,11,17,22,10.70
2016,11,11,17,23,10.70
2016,11,11,17,24,10.70
2016,11,11,17,25,10.70
2016,11,11,17,26,10.70
2016,11,11,17,27,10.70
2016,11,11,17,28,10.70